Regional Weather Roundup
Issued by NWS

Home | Current Version | Previous Version | Text Only | Print | Product List | Glossary On
Versions: 1 2 3 4 5 6 7 8 9 10 11 12 13 14 15 16 17 18 19 20 21 22 23 24 25 26 27 28 29 30 31 32 33 34 35 36 37 38 39 40 41 42 43 44 45 46 47 48 49 50
000
ASUS46 KLOX 251112
RWRCA

SOUTHERN CALIFORNIA WEATHER ROUNDUP
NATIONAL WEATHER SERVICE OXNARD CALIFORNIA
400 AM PDT FRI JUL 25 2014

NOTE: "FAIR" INDICATES FEW OR NO CLOUDS BELOW 12,000 FEET WITH NO
SIGNIFICANT WEATHER AND/OR OBSTRUCTIONS TO VISIBILITY.

  -  STATIONS PRECEEDED BY AN ASTERISK (*) ARE NOT NWS OR FAA
     STATIONS AND ARE NOT SUBJECT TO NWS AND FAA QUALITY CONTROL.

CAZ041-042-087-251200-
LA AND ORANGE COUNTY COASTAL AREAS


CITY           SKY/WX    TMP DP  RH WIND       PRES   REMARKS
L.A. DOWNTOWN  CLEAR     70  63  78 CALM      29.86R
L.A. AIRPORT   PTCLDY    70  63  78 E5        29.86S
LONG BEACH     CLOUDY    71  66  84 SE8       29.86R

CITY           SKY/WX    TMP DP  RH WIND       PRES   REMARKS
AVALON           N/A     63 N/A N/A MISG        N/A
FULLERTON      MOCLDY    71  66  84 CALM      29.85S
*GETTY CENTER    N/A     64  59  82 NE6         N/A
HAWTHORNE      PTCLDY    71  65  81 E6        29.86R
*LEO CARRILLO    N/A     64  57  78 NE5         N/A
*LOS ALAMITOS  FAIR      70  66  89 SE8       29.86R
*REDONDO BEACH   N/A     69  64  85 SE2       29.85S
SANTA ANA      CLEAR     73  65  75 CALM      29.85S
STA MONICA APT PTCLDY    69  60  73 CALM      29.86R
*UCLA            N/A     66  59  77 CALM      29.84S

$$

CAZ547-548-048-251200-
LA COUNTY VALLEYS AND INLAND EMPIRE


CITY           SKY/WX    TMP DP  RH WIND       PRES   REMARKS
BURBANK        CLEAR     71  59  65 E7        29.87R
VAN NUYS       CLEAR     70  57  63 CALM      29.87R

CITY           SKY/WX    TMP DP  RH WIND       PRES   REMARKS
CORONA AIRPORT SUNNY     69  63  81 W3        29.87R
CHINO          CLEAR     68  62  81 NW5       29.88R
*CLAREMONT       N/A     64  43  46 CALM        N/A
MARCH AFB      CLEAR     71  58  64 CALM      29.90S
*NORTHRIDGE      N/A     68  55  64 SE1         N/A
ONTARIO        PTCLDY    72  59  63 W9        29.87S
*PASADENA        N/A     68  63  83 CALM        N/A
RIVERSIDE      CLEAR     73  59  61 NW3       29.87S
SAN BERNARDINO NOT AVBL
*SAN GABRIEL     N/A     70  63  77 CALM      29.82S
*SAN RAFAEL HI   N/A     66  57  73 S7          N/A
*SAUGUS          N/A     68  49  51 N5          N/A
*WHITEMAN AP   NOT AVBL
*WOODLAND HILL   N/A     66  57  72 SE1         N/A

$$

CAZ054-055-251200-
LA AND SAN BERNARDINO COUNTY MOUNTAINS


CITY           SKY/WX    TMP DP  RH WIND       PRES   REMARKS
*ACTON           N/A     64  40  42 N3          N/A
*BIG BEAR AIRP SUNNY     61  39  44 CALM      30.24S
*BIG PINES       N/A     70   9   9 NE2         N/A
*CHILAO          N/A     75  -5   4 E9          N/A
MT WILSON NWS    N/A     72   1   6 SW2         N/A
SANDBERG       CLEAR     71  36  27 S15       30.05S
*WARM SPRINGS    N/A     71  46  39 SW6         N/A

$$

CAZ028-029-059-060-099-251200-
ANTELOPE VALLEY AND SURROUNDING AREAS


CITY           SKY/WX    TMP DP  RH WIND       PRES   REMARKS
LANCASTER      CLEAR     80  39  23 NW13      29.89S
PALMDALE       CLEAR     76  34  21 N3        29.90S
*POPPY PARK      N/A     81  41  24 NE6G49      N/A

CITY           SKY/WX    TMP DP  RH WIND       PRES   REMARKS
29 PALMS       PTCLDY    90  46  21 SW3       29.90S
BARSTOW/DAGGET CLEAR     83  32  16 W12       29.85S
BISHOP         CLEAR     62  24  23 NW6       29.96S
CHINA LAKE     CLEAR     75  34  22 S7        29.84S
EDWARDS AFB    PTCLDY    69  40  34 S7        29.87R
MOJAVE         FAIR      73  36  25 SW5       29.91S
NEEDLES        CLEAR     97  53  22 CALM      29.76S HX  94
VICTORVILLE    PTCLDY    79  36  21 SW3       29.93R

$$

CAZ039-040-251200-
VENTURA AND SANTA BARBARA COUNTY COAST


CITY           SKY/WX    TMP DP  RH WIND       PRES   REMARKS
CAMARILLO      CLEAR     64  58  80 CALM      29.84R
NWS OXNARD       N/A     63  58  84 CALM      29.85R
OXNARD AIRPORT PTCLDY    63  60  90 CALM      29.84R FOG
*POINT MUGU    CLEAR     64  60  87 CALM      29.85R
SBA APT/GOLETA CLEAR     67  59  75 E10       29.82R
*SANTA BARBARA   N/A     66  60  78 SW3       29.91R
*VENTURA         N/A     64  58  81 CALM      29.87S

$$

CAZ044-045-251200-
VENTURA COUNTY VALLEYS


CITY           SKY/WX    TMP DP  RH WIND       PRES   REMARKS
*SIMI VALLEY     N/A     71  58  62 CALM      29.78R
*OJAI            N/A     60  55  82 CALM      29.78R
*FILLMORE        N/A     61  57  85 CALM      29.75R

$$

CAZ053-251200-
VENTURA COUNTY MOUNTAINS


CITY           SKY/WX    TMP DP  RH WIND       PRES   REMARKS
*LOCKWOOD VLY    N/A     48  25  40 MISG        N/A
*ROSE VALLEY     N/A     50  41  71 MISG        N/A

$$

CAZ034-035-036-251200-
CENTRAL COAST AND SANTA YNEZ VALLEY


CITY           SKY/WX    TMP DP  RH WIND       PRES   REMARKS
SAN LUIS OBISP PTCLDY    56  53  90 CALM      29.85S
SANTA MARIA    CLOUDY    60  55  83 S5        29.85S

CITY           SKY/WX    TMP DP  RH WIND       PRES   REMARKS
*CAL POLY SLO    N/A     55  54  94 CALM        N/A
*CAMBRIA         N/A     54  53  95 CALM      29.75S
*LOMPOC          N/A     61  54  77 CALM      29.86S
*PISMO BEACH     N/A     58  55  89 CALM      29.85R

$$

CAZ037-038-051-251200-
SAN LUIS OBISPO COUNTY INTERIOR AND CUYAMA VALLEY


CITY           SKY/WX    TMP DP  RH WIND       PRES   REMARKS
*CUYAMA          N/A     62  44  53 E6        29.79S
PASO ROBLES    CLEAR     65  49  56 CALM      29.85S

$$

CAZ032-033-061-251200-
SOUTHERN DESERTS


CITY           SKY/WX    TMP DP  RH WIND       PRES   REMARKS
BLYTHE         MOCLDY    95  57  27 S8        29.72F HX  94
IMPERIAL       MOCLDY    90  72  55 E10       29.69R HX  97
PALM SPRINGS   PTCLDY    94  48  20 NE5       29.76S HX  90
THERMAL        MOCLDY    88  67  49 S3        29.69R HX  91

$$

ELSEWHERE ACROSS THE WESTERN UNITED STATES AND MEXICO


CITY           SKY/WX    TMP DP  RH WIND       PRES   REMARKS
DENVER, CO     MOCLDY    74  48  39 SW12      30.06R
GRAND CANYON,  CLOUDY    60  55  83 CALM      30.27S
HONOLULU, HI   MOCLDY    79  66  65 E12       30.01F
KAHULUI, MAUI  CLEAR     72  64  78 E7        30.01F
LAKE TAHOE, CA CLEAR     46  38  73 CALM      30.17S
LAS VEGAS, NV  PTCLDY    92  49  22 S12       29.79S
MAMMOTH LAKES, FAIR      48  21  34 N3        30.21S
MEXICO CITY, M MOCLDY    55  54  94 CALM      30.36F
PHOENIX, AZ    PTCLDY    93  61  34 NE8       29.84S HX  93
PORTLAND, OR   PTCLDY    56  52  86 NW6       30.16F
RENO, NV       CLEAR     63  41  44 CALM      30.06R
SALT LAKE CITY PTCLDY    67  42  40 CALM      30.02R
SAN DIEGO, CA  CLOUDY    69  63  81 S9        29.88S
SAN FRANCISCO, CLEAR     63  57  81 W8        29.84S
SAN JOSE, CA   CLEAR     64  55  72 CALM      29.83F
SEATTLE, WA    MOCLDY    55  52  89 CALM      30.19F
TIJUANA, MEX   MOCLDY    68  61  77 NW5       29.90S

$$

STATION/POSITION TIME  TEMP    WIND        PRES    VSBY  WAVE
                       AIR SEA DIR/SP/G                  HT/PER
                 (UTC) (F)     (DEG/KT/KT) (MB)    (MI)  (FT/S)
POINT ARGUELLO B NOT AVBL
WEST SANTA BARBA 1100   60 58  310/ 17/ 19 1009.7R         6/ 8
POINT CONCEPTION NOT AVBL
EAST SANTA BARBA 1100   63 65  250/ 10/ 12 1009.5R
SANTA MONICA BAY 1100   66 68   CALM  /  2 1010.1S         5/ 6



USA.gov is the U.S. government's official web portal to all federal, state and local government web resources and services.